Weather History for Philadelphia Wings Airport, PA

Change the Weather History Date:

Tuesday, October 2, 2012

  Actual Average (KPNE) Record (KPNE)
Temperature  
Mean Temperature 64 °F -  
Max Temperature 68 °F 68 °F 86 °F (2002)
Min Temperature 59 °F 48 °F 37 °F (1997)
Degree Days  
Heating Degree Days 2    
Growing Degree Days 14 (Base 50)    
Moisture  
Dew Point 61 °F    
Average Humidity 91    
Maximum Humidity 100    
Minimum Humidity 73    
Precipitation  
Precipitation 0.31 in - - ()
Sea Level Pressure  
Sea Level Pressure 29.96 in    
Wind  
Wind Speed 2 mph (ENE)    
Max Wind Speed 9 mph    
Max Gust Speed -    
Visibility 6 miles    
Events      
Averages and records for this station are not official NWS values.
T = Trace of Precipitation, MM = Missing Value Source: NWS Daily Summary

Daily Weather History Graph

Daily Weather History Graph

Search for Another Location

Airport:

Trip Planner

Search our weather history database for the weather conditions in past years. The results will help you decide how hot, cold, wet, or windy it might be!

Date:

Astronomy

Oct. 02, 2012 Rise Set
Actual Time 6:58 AM EDT 6:40 PM EDT
Civil Twilight 6:31 AM EDT 7:07 PM EDT
Nautical Twilight 6:00 AM EDT 7:39 PM EDT
Astronomical Twilight 5:28 AM EDT 8:11 PM EDT
Moon 7:52 PM EDT (10/2) 9:23 AM EDT (10/2)
Length of Visible Light 12h 36m
Length of Day
11h 42m
Waning Gibbous, 94% of the Moon is Illuminated
Oct 2
Waning Gibbous
Oct 8
Last Quarter
Oct 15
New
Oct 21
First Quarter
Oct 29
Full

Hourly Weather History & Observations

Time (EDT) Temp. Dew Point Humidity Pressure Visibility Wind Dir Wind Speed Gust Speed Precip Events Conditions
12:15 AM 59.0 °F 55.4 °F 88% 29.97 in 10.0 mi Calm Calm - N/A   Mostly Cloudy
12:35 AM 60.8 °F 57.2 °F 88% 29.97 in 10.0 mi Calm Calm - N/A   Overcast
12:55 AM 60.8 °F 57.2 °F 88% 29.96 in 10.0 mi Calm Calm - N/A   Overcast
1:15 AM 60.8 °F 57.2 °F 88% 29.97 in 10.0 mi Calm Calm - N/A   Overcast
1:55 AM 60.8 °F 55.4 °F 82% 29.96 in 10.0 mi Calm Calm - N/A   Mostly Cloudy
2:15 AM 60.8 °F 57.2 °F 88% 29.96 in 10.0 mi Calm Calm - N/A   Mostly Cloudy
2:35 AM 60.8 °F 57.2 °F 88% 29.97 in 10.0 mi Calm Calm - N/A   Overcast
2:55 AM 60.8 °F 57.2 °F 88% 29.96 in 10.0 mi Calm Calm - N/A   Overcast
3:15 AM 60.8 °F 57.2 °F 88% 29.96 in 10.0 mi Calm Calm - N/A   Overcast
3:35 AM 60.8 °F 57.2 °F 88% 29.96 in 10.0 mi Calm Calm - N/A   Overcast
3:55 AM 60.8 °F 57.2 °F 88% 29.96 in 10.0 mi Calm Calm - N/A   Overcast
4:15 AM 60.8 °F 57.2 °F 88% 29.97 in 10.0 mi Calm Calm - N/A   Overcast
4:35 AM 60.8 °F 59.0 °F 94% 29.97 in 10.0 mi Calm Calm - N/A   Overcast
4:55 AM 60.8 °F 57.2 °F 88% 29.97 in 10.0 mi Calm Calm - N/A   Overcast
5:15 AM 60.8 °F 59.0 °F 94% 29.97 in 10.0 mi Calm Calm - N/A   Overcast
5:35 AM 60.8 °F 59.0 °F 94% 29.97 in 10.0 mi Calm Calm - N/A   Overcast
5:55 AM 60.8 °F 57.2 °F 88% 29.97 in 10.0 mi Calm Calm - N/A   Overcast
6:15 AM 60.8 °F 59.0 °F 94% 29.97 in 10.0 mi Calm Calm - N/A   Overcast
6:35 AM 62.6 °F 59.0 °F 88% 29.97 in 10.0 mi Calm Calm - N/A   Overcast
6:55 AM 62.6 °F 59.0 °F 88% 29.97 in 10.0 mi Calm Calm - N/A   Overcast
7:15 AM 62.6 °F 59.0 °F 88% 29.97 in 10.0 mi Calm Calm - N/A   Overcast
7:35 AM 62.6 °F 57.2 °F 82% 29.98 in 10.0 mi Calm Calm - N/A   Overcast
7:55 AM 62.6 °F 57.2 °F 82% 29.98 in 10.0 mi East 4.6 mph - N/A   Overcast
8:15 AM 64.4 °F 57.2 °F 77% 29.98 in 10.0 mi East 5.8 mph - N/A   Overcast
8:35 AM 64.4 °F 57.2 °F 77% 29.98 in 10.0 mi ENE 3.5 mph - N/A   Overcast
8:55 AM 64.4 °F 59.0 °F 83% 29.98 in 10.0 mi East 5.8 mph - N/A   Overcast
9:15 AM 64.4 °F 59.0 °F 83% 29.98 in 10.0 mi East 5.8 mph - N/A   Overcast
9:35 AM 64.4 °F 59.0 °F 83% 29.98 in 10.0 mi East 6.9 mph - N/A   Overcast
9:55 AM 68.0 °F 59.0 °F 73% 29.97 in 10.0 mi East 8.1 mph - N/A   Overcast
10:15 AM 68.0 °F 59.0 °F 73% 29.97 in 10.0 mi East 9.2 mph - N/A   Overcast
10:35 AM 64.4 °F 59.0 °F 83% 29.97 in 7.0 mi East 5.8 mph - 0.01 in   Overcast
10:55 AM 64.4 °F 60.8 °F 88% 29.97 in 5.0 mi ESE 5.8 mph - 0.02 in   Overcast
11:15 AM 64.4 °F 60.8 °F 88% 29.97 in 7.0 mi East 5.8 mph - 0.02 in   Overcast
11:35 AM 64.4 °F 60.8 °F 88% 29.98 in 7.0 mi East 3.5 mph - 0.03 in   Overcast
11:55 AM 64.4 °F 60.8 °F 88% 29.98 in 5.0 mi Calm Calm - 0.04 in   Overcast
12:15 PM 64.4 °F 62.6 °F 94% 29.97 in 5.0 mi NE 3.5 mph - 0.01 in   Overcast
12:35 PM 64.4 °F 62.6 °F 94% 29.97 in 5.0 mi ENE 3.5 mph - 0.02 in   Overcast
12:55 PM 66.2 °F 62.6 °F 88% 29.96 in 5.0 mi East 8.1 mph - 0.03 in   Mostly Cloudy
1:15 PM 66.2 °F 62.6 °F 88% 29.96 in 2.5 mi Calm Calm - 0.02 in   Overcast
1:35 PM 64.4 °F 62.6 °F 94% 29.95 in 1.8 mi Calm Calm - 0.09 in   Overcast
1:55 PM 64.4 °F 62.6 °F 94% 29.96 in 1.0 mi Calm Calm - 0.17 in   Overcast
2:15 PM 64.4 °F 62.6 °F 94% 29.95 in 2.5 mi Calm Calm - 0.01 in   Overcast
2:35 PM 64.4 °F 64.4 °F 100% 29.94 in 2.5 mi NE 4.6 mph - 0.02 in   Overcast
2:55 PM 66.2 °F 64.4 °F 94% 29.94 in 4.0 mi NE 5.8 mph - 0.02 in   Mostly Cloudy
3:15 PM 66.2 °F 64.4 °F 94% 29.93 in 4.0 mi ENE 6.9 mph - N/A   Overcast
3:35 PM 66.2 °F 64.4 °F 94% 29.94 in 2.5 mi ENE 5.8 mph - 0.01 in   Overcast
3:55 PM 64.4 °F 62.6 °F 94% 29.93 in 1.8 mi ENE 5.8 mph - 0.02 in   Overcast
4:15 PM 64.4 °F 64.4 °F 100% 29.93 in 1.8 mi ENE 4.6 mph - 0.01 in   Overcast
4:35 PM 64.4 °F 64.4 °F 100% 29.93 in 1.5 mi NE 3.5 mph - 0.01 in   Overcast
4:55 PM 66.2 °F 64.4 °F 94% 29.93 in 1.2 mi NE 3.5 mph - 0.01 in   Overcast
5:15 PM 64.4 °F 64.4 °F 100% 29.93 in 1.2 mi Calm Calm - N/A   Overcast
5:35 PM 64.4 °F 64.4 °F 100% 29.93 in 0.8 mi NE 3.5 mph - N/A   Overcast
5:55 PM 64.4 °F 64.4 °F 100% 29.93 in 0.8 mi NE 3.5 mph - N/A   Overcast
6:15 PM 64.4 °F 64.4 °F 100% 29.93 in 1.0 mi ENE 4.6 mph - N/A   Overcast
6:35 PM 64.4 °F 64.4 °F 100% 29.93 in 0.8 mi ENE 4.6 mph - N/A   Overcast
6:55 PM 64.4 °F 64.4 °F 100% 29.93 in 1.2 mi ENE 5.8 mph - N/A   Overcast
7:15 PM 64.4 °F 64.4 °F 100% 29.94 in 1.0 mi ENE 3.5 mph - N/A   Overcast
7:35 PM 64.4 °F 64.4 °F 100% 29.95 in 0.8 mi Calm Calm - N/A   Overcast
8:15 PM 66.2 °F 64.4 °F 94% 29.95 in 0.5 mi Calm Calm - N/A   Overcast
8:35 PM 66.2 °F 64.4 °F 94% 29.96 in 0.5 mi Calm Calm - N/A   Overcast
8:55 PM 64.4 °F 64.4 °F 100% 29.96 in 0.5 mi ENE 3.5 mph - N/A   Overcast
9:15 PM 64.4 °F 64.4 °F 100% 29.96 in 0.5 mi Calm Calm - N/A   Overcast
9:35 PM 64.4 °F 64.4 °F 100% 29.96 in 0.5 mi Calm Calm - N/A   Overcast
9:55 PM 64.4 °F 64.4 °F 100% 29.97 in 0.5 mi NE 3.5 mph - N/A   Overcast
10:15 PM 64.4 °F 62.6 °F 94% 29.97 in 0.5 mi Calm Calm - N/A   Overcast
10:35 PM 64.4 °F 62.6 °F 94% 29.98 in 0.5 mi Calm Calm - N/A   Overcast
10:55 PM 64.4 °F 62.6 °F 94% 29.97 in 0.5 mi Calm Calm - N/A   Overcast
11:15 PM 64.4 °F 62.6 °F 94% 29.98 in 0.8 mi Calm Calm - N/A   Overcast
11:35 PM 64.4 °F 62.6 °F 94% 29.98 in 0.5 mi NE 3.5 mph - N/A   Overcast
11:55 PM 64.4 °F 62.6 °F 94% 29.97 in 0.5 mi Calm Calm - N/A   Overcast